Regional Weather Roundup
Issued by NWS State College, PA

Home | Current Version | Previous Version | Text Only | Print | Product List | Glossary Off
Versions: 1 2 3 4 5 6 7 8 9 10 11 12 13 14 15 16 17 18 19 20 21 22 23 24 25 26 27 28 29 30 31 32 33 34 35 36 37 38 39 40 41 42 43 44 45 46 47 48 49 50

000
ASUS41 KCTP 192103
RWRCTP

REGIONAL WEATHER ROUNDUP
NATIONAL WEATHER SERVICE STATE COLLEGE PA
500 PM EDT SAT APR 19 2014

Note: "fair" indicates few or no clouds below 12,000 feet with no
significant weather and/or obstructions to visibility.

* = STATION THAT DOES NOT REPORT PRECIPITATION /E.G. RAIN...SNOW...ETC/
    THUNDER OR FOG.

PAZ002>004-007>009-013>016-020>023-029>032-192200-
WESTERN PENNSYLVANIA

CITY           SKY/WX    TMP DP  RH WIND       PRES   REMARKS
ERIE           SUNNY     49  29  46 NE14      30.39S
MEADVILLE      SUNNY     56  28  34 N10       30.32F
FRANKLIN*      SUNNY     61  21  21 NE10      30.32S
NEW CASTLE     FAIR      61  24  24 N8        30.31F
BEAVER COUNTY  SUNNY     61  23  23 N7G20     30.29F
BUTLER*        PTSUNNY   63  23  22 NE9       30.30F
PITTSBURGH INT PTSUNNY   64  18  17 N9G21     30.27F
PITTSBURGH     PTSUNNY   65  17  15 VRB5      30.26F
INDIANA*       PTSUNNY   63  16  16 NE5       30.27F
LATROBE        PTSUNNY   63  25  23 NE12      30.28F
WASHINGTON CO* PTSUNNY   61  25  25 E7        30.29F
$$

PAZ004>006-010>012-017>019-024>028-033>037-041-042-045-046-049>053-192200-
CENTRAL PENNSYLVANIA

CITY           SKY/WX    TMP DP  RH WIND       PRES   REMARKS
BRADFORD       SUNNY     56  21  25 N9        30.30F
DUBOIS         PTSUNNY   63  20  19 NE14      30.27F
CLEARFIELD     PTSUNNY   62  15  16 N5        30.27S
JOHNSTOWN      PTSUNNY   58  20  22 NE8       30.25S
ALTOONA        PTSUNNY   62  25  24 NE8G17    30.26F
STATE COLLEGE  SUNNY     63  19  19 NE12      30.27S
WILLIAMSPORT   MOSUNNY   61  27  27 N14       30.28F
SELINSGROVE    PTSUNNY   63  26  24 NE15      30.28S
FT INDIANTOWN  NOT AVBL
CAPITAL CITY   PTSUNNY   63  26  24 NW9G18    30.26F
HARRISBURG     PTSUNNY   66  24  20 NE6       30.25F
YORK           PTSUNNY   64  25  22 N10       30.26S
$$

PAZ038>040-043-044-047-048-054-055-060>062-067>071-192200-
EASTERN PENNSYLVANIA

CITY           SKY/WX    TMP DP  RH WIND       PRES   REMARKS
SCRANTON       MOSUNNY   59  23  25 N14G23    30.28S
MOUNT POCONO   MOSUNNY   56  20  24 N13G23    30.26R
ALLENTOWN      MOSUNNY   65  23  20 N16       30.25S
QUAKERTOWN*    MOCLDY    63  25  23 N9        30.25S
READING        PTSUNNY   65  24  21 N10       30.24F
LANCASTER      PTSUNNY   63  27  25 NE13G20   30.24F
COATESVILLE    MOCLDY    63  21  20 N9G16     30.26R
POTTSTOWN      PTSUNNY   64  28  25 N12G17    30.26S
BLUE BELL      PTSUNNY   66  21  18 N8        30.23F
DOYLESTOWN     PTSUNNY   65  22  19 NE10      30.23S
WILLOW GROVE   NOT AVBL
NORTH PHILA    PTSUNNY   67  23  19 VRB5      30.25S
PHILADELPHIA   CLOUDY    66  20  17 N12       30.24S
$$



USA.gov is the U.S. government's official web portal to all federal, state and local government web resources and services.